Weather Roundup
Issued by NWS Chicago, IL

Home | Current Version | Previous Version | Text Only | Print | Product List | Glossary On
Versions: 1 2 3 4 5 6 7 8 9 10 11 12 13 14 15 16 17 18 19 20 21 22 23 24 25 26 27 28 29 30 31 32 33 34 35 36 37 38 39 40 41 42 43 44 45 46 47 48 49 50
000
NZUS59 KLOT 060721
HRRLOT

CHICAGO AREA WEATHER ROUNDUP
NATIONAL WEATHER SERVICE CHICAGO/ROMEOVILLE IL
200 AM CDT WED MAY 06 2015

NOTE: "FAIR" INDICATES FEW OR NO CLOUDS BELOW 12,000 FEET WITH NO
SIGNIFICANT WEATHER AND/OR OBSTRUCTIONS TO VISIBILITY.

* THESE STATIONS ARE NOT UNDER NWS QUALITY CONTROL. THEY ALSO MAY NOT
  REPORT WEATHER SUCH AS PRECIPITATION OR FOG.

ILZ005-006-012>014-019>023-060800-
NORTHEAST ILLINOIS

CITY           SKY/WX    TMP DP  RH WIND       PRES   REMARKS
OHARE          CLOUDY    46  46 100 NE6       30.19F FOG
MIDWAY         CLOUDY    52  49  89 N5        30.19F FOG
AURORA         FOG       51  49  92 NE10      30.19S VSB 1
LANSING*       FOG       49  47  95 CALM      30.19F VSB 3/4
JOLIET*        FOG       54  54  98 NE5       30.18F VSB 3/4
WAUKEGAN       CLOUDY    46  42  86 NE6       30.21F
DUPAGE AIRPORT FOG       49  48  97 NE7       30.19F VSB 1/2
WHEELING       FOG       45  44  97 NE6       30.22F VSB 3/4
KANKAKEE*      FOG       60  59  98 E5        30.17S VSB 3/4
MORRIS*        CLOUDY    54  53  95 NE3       30.14F FOG
LEWIS AIRPORT* FOG       51  51 100 NE8       30.18F VSB 3/4
NORTHERLY IS     N/A     47  45  93 N5          N/A
$$

WIZ051-052-058>065-066-070>072-060800-
SOUTHEAST WISCONSIN

CITY           SKY/WX    TMP DP  RH WIND       PRES   REMARKS
MILWAUKEE      CLOUDY    46  35  65 CALM      30.23F
KENOSHA*       CLOUDY    48  41  76 NE3       30.22F
RACINE*        CLOUDY    46  37  71 NE3       30.24S
BURLINGTON     CLOUDY    46  42  85 E5        30.22S
WAUKESHA       MOCLDY    43  37  81 CALM      30.23S
WEST BEND      CLOUDY    45  39  81 CALM      30.22F
$$

INZ001>003-010>013-019-020-060800-
NORTHWEST INDIANA

CITY           SKY/WX    TMP DP  RH WIND       PRES   REMARKS
GARY*          FOG       49  47  90 NW3       30.20S VSB 1/2
MICHIGAN CITY* NOT AVBL
RENSSELAER*    NOT AVBL
VALPARAISO     CLOUDY    57  57 100 E7        30.19F FOG
$$

LMZ740>746-060800-
SOUTHERN LAKE MICHIGAN

STATION/POSITION TIME  SKY/WX   TEMP WIND        PRES    VSBY
                                AIR  DIR/SP/G
                 (UTC)          (F)  (DEG/KT/KT) (MB)    (MI)
HARRISON CRIB    0700            44   10/  6/  7   N/A
BURNHAM HARBOR   0700            47  350/  3/  8   N/A
CALUMET HARBOR   0612            45  340/  4/  5   N/A
BURNS HARBOR     0600            51  290/  2/  3 1023.0F
MICHIGAN CITY    0700            56   90/  3/  5   N/A
$$

ABBREVIATIONS USED IN REMARKS
   TC - TEMPERATURE IN CELSIUS
  WCI - WIND CHILL INDEX
   HX - HEAT INDEX
  VSB - VISIBILITY
$$



USA.gov is the U.S. government's official web portal to all federal, state and local government web resources and services.